Location: Lake Runnemede Observatory
(43.4843°N, 72.3851°W)
Time: 10:02:11
(UTC-04:00)

Amateur Radio Satellites - All Passes

Search period start: 29 August 2014 09:32
Search period end: 30 August 2014 09:32
Location: Lake Runnemede Observatory, 43.4843°N, 72.3851°W

Satellite Date Start Highest point End Downlink Frequencies (MHz)
Time Altitude Azimuth
RS-15 29 Aug 09:49:54 10:00:39 55° 315° (NW) 10:11:22 29.354 - 29.394 USB, Beacon 29.352 USB
KITSAT 1 29 Aug 10:06:14 10:13:43 44° 249° (WSW) 10:21:10 435.175 FM
UKube-1 29 Aug 10:13:48 10:18:08 62° 102° (ESE) 10:22:25 145.840 MHz, 145.915 MHz
Oscar 11 29 Aug 10:21:44 10:26:00 50° 99° (E) 10:30:14 145.825 FM, Beacon 2401.500 USB
FUNcube-1 29 Aug 10:42:47 10:46:55 35° 97° (E) 10:51:06 145.950 - 145.970 MHz USB
HO-68 29 Aug 11:09:19 11:15:57 43° 296° (WNW) 11:22:34 435.675 MHz FM
ISS 29 Aug 11:26:08 11:29:24 55° 143° (SE) 11:32:40 145.800 FM
Oscar 16 29 Aug 11:44:24 11:44:56 10° 55° (NE) 11:45:27 437.025 USB, Beacon 2401.1428
SO-50 29 Aug 11:48:30 11:52:31 26° 43° (NE) 11:56:34 436.795 FM
UKube-1 29 Aug 11:51:32 11:53:50 14° 299° (WNW) 11:56:08 145.840 MHz, 145.915 MHz
Oscar 11 29 Aug 11:58:57 12:01:48 17° 296° (WNW) 12:04:37 145.825 FM, Beacon 2401.500 USB
RS-15 29 Aug 12:07:28 12:16:10 26° 346° (NNW) 12:24:56 29.354 - 29.394 USB, Beacon 29.352 USB
FUNcube-1 29 Aug 12:19:28 12:23:09 25° 293° (WNW) 12:26:53 145.950 - 145.970 MHz USB
MaSat-1 29 Aug 12:35:28 12:38:21 16° 100° (E) 12:41:20 437.345 MHz
Oscar 19 29 Aug 12:44:15 12:48:50 33° 67° (ENE) 12:53:27 437.125 CW, 437.150 USB
JAS-1B 29 Aug 12:58:16 13:06:43 36° 61° (ENE) 13:14:23 435.800 - 435.900 CW/SSB
ISS 29 Aug 13:03:18 13:06:17 30° 341° (NNW) 13:09:17 145.800 FM
ITAMSAT 1 29 Aug 13:13:20 13:17:42 29° 65° (ENE) 13:22:04 435.822 SSB
TMSAT-1 29 Aug 13:17:35 13:19:02 11° 55° (NE) 13:20:28 436.925 FM
Oscar 16 29 Aug 13:18:12 13:23:19 70° 73° (ENE) 13:28:29 437.025 USB, Beacon 2401.1428
Uribyol 2 29 Aug 13:23:19 13:27:59 36° 67° (ENE) 13:32:41 436.500 FM
AO-Echo 29 Aug 13:24:02 13:28:38 37° 69° (ENE) 13:33:07 ?
SO-50 29 Aug 13:28:41 13:33:20 51° 241° (WSW) 13:38:01 436.795 FM
AO-27 29 Aug 13:41:11 13:46:10 51° 70° (ENE) 13:51:10 436.795 MHz FM
UOSAT-12 29 Aug 13:56:52 14:01:12 34° 46° (NE) 14:05:29 437.025 FM, 437.400 FM
Gurwin Techsat 1B 29 Aug 14:00:49 14:05:35 35° 67° (ENE) 14:10:22 435.225 FM
MaSat-1 29 Aug 14:09:50 14:14:43 71° 299° (WNW) 14:19:54 437.345 MHz
Oscar 19 29 Aug 14:23:33 14:28:09 32° 264° (W) 14:32:47 437.125 CW, 437.150 USB
RS-15 29 Aug 14:24:05 14:33:17 29° 22° (NNE) 14:42:40 29.354 - 29.394 USB, Beacon 29.352 USB
ISS 29 Aug 14:41:14 14:43:45 20° 1° (N) 14:46:17 145.800 FM
JAS-1B 29 Aug 14:46:58 14:56:45 66° 258° (WSW) 15:05:37 435.800 - 435.900 CW/SSB
ITAMSAT 1 29 Aug 14:52:15 14:57:02 38° 262° (W) 15:01:52 435.822 SSB
TMSAT-1 29 Aug 14:52:45 14:58:01 74° 74° (ENE) 15:03:19 436.925 FM
AO-7 29 Aug 14:53:58 15:01:16 36° 57° (ENE) 15:08:33 29.400 - 29.500 MHz
Oscar 16 29 Aug 15:00:16 15:03:11 15° 270° (W) 15:06:07 437.025 USB, Beacon 2401.1428
Uribyol 2 29 Aug 15:03:04 15:07:30 29° 265° (W) 15:11:59 436.500 FM
AO-Echo 29 Aug 15:03:11 15:07:27 27° 265° (W) 15:11:38 ?
AO-27 29 Aug 15:22:06 15:25:58 21° 267° (W) 15:29:51 436.795 MHz FM
UOSAT-12 29 Aug 15:37:05 15:41:21 34° 245° (WSW) 15:45:32 437.025 FM, 437.400 FM
Gurwin Techsat 1B 29 Aug 15:40:51 15:45:33 32° 264° (W) 15:50:17 435.225 FM
MaSat-1 29 Aug 15:50:08 15:52:43 14° 319° (NW) 15:55:20 437.345 MHz
Uosat F 29 Aug 15:51:19 15:56:11 53° 71° (ENE) 16:01:03 435.120 FM
PCSat 29 Aug 15:58:46 16:00:51 12° 102° (ESE) 16:02:56 145.825 MHz
ISS 29 Aug 16:18:05 16:21:11 34° 21° (NNE) 16:24:16 145.800 FM
TMSAT-1 29 Aug 16:35:38 16:38:30 15° 271° (W) 16:41:23 436.925 FM
RS-15 29 Aug 16:37:01 16:48:04 70° 51° (NE) 16:59:31 29.354 - 29.394 USB, Beacon 29.352 USB
JAS-1B 29 Aug 16:43:51 16:48:30 14° 276° (W) 16:53:01 435.800 - 435.900 CW/SSB
AO-7 29 Aug 16:45:29 16:53:40 59° 257° (WSW) 17:01:53 29.400 - 29.500 MHz
JAS-2 29 Aug 16:51:36 16:56:29 26° 65° (ENE) 17:00:59 435.800 - 435.900 CW/SSB, 435.910 FM
Oscar 10/S400 29 Aug 16:56:41 17:11:57 27° 144° (SE) 17:32:26 145.825 - 145.975 CW/USB, Beacon 145.810 USB
OPAL 29 Aug 17:06:46 17:11:50 48° 102° (ESE) 17:16:51 ?
Sapphire 29 Aug 17:08:42 17:13:51 47° 114° (ESE) 17:19:02 437.095 MHz 1200 baud AX-25 AFSK
Uosat F 29 Aug 17:31:45 17:35:17 19° 268° (W) 17:38:49 435.120 FM
PCSat 29 Aug 17:38:00 17:43:25 88° 119° (ESE) 17:48:53 145.825 MHz
Hamsat 29 Aug 17:53:27 17:57:45 83° 76° (ENE) 18:02:08 145.90 MHz
ISS 29 Aug 17:54:47 17:57:58 42° 219° (SW) 18:01:08 145.800 FM
SO-67 29 Aug 18:09:07 18:11:08 15° 66° (ENE) 18:13:10 435.3500 MHz FM
JAS-2 29 Aug 18:35:21 18:41:23 49° 260° (W) 18:46:48 435.800 - 435.900 CW/SSB, 435.910 FM
OPAL 29 Aug 18:46:15 18:50:24 25° 299° (WNW) 18:54:33 ?
STRAND 1 29 Aug 18:48:51 18:52:58 24° 94° (E) 18:57:03 ?
RS-15 29 Aug 18:50:04 18:59:42 36° 253° (WSW) 19:09:43 29.354 - 29.394 USB, Beacon 29.352 USB
Sapphire 29 Aug 18:52:45 18:57:28 30° 313° (NW) 19:02:13 437.095 MHz 1200 baud AX-25 AFSK
PCSat 29 Aug 19:23:48 19:27:35 19° 320° (NW) 19:31:23 145.825 MHz
SO-67 29 Aug 19:40:43 19:43:54 34° 263° (W) 19:47:07 435.3500 MHz FM
HO-68 29 Aug 19:51:39 19:57:57 35° 61° (ENE) 20:04:15 435.675 MHz FM
STRAND 1 29 Aug 20:27:30 20:32:19 43° 291° (WNW) 20:37:07 ?
UKube-1 29 Aug 21:10:17 21:14:35 63° 73° (ENE) 21:18:53 145.840 MHz, 145.915 MHz
Oscar 11 29 Aug 21:17:48 21:21:56 45° 72° (ENE) 21:26:06 145.825 FM, Beacon 2401.500 USB
HO-68 29 Aug 21:38:33 21:45:25 50° 260° (W) 21:52:20 435.675 MHz FM
FUNcube-1 29 Aug 21:40:47 21:44:27 30° 69° (ENE) 21:48:11 145.950 - 145.970 MHz USB
Saudisat 1A 29 Aug 22:09:55 22:12:59 19° 111° (ESE) 22:16:03 436.775 MHz
MaSat-1 29 Aug 22:26:38 22:31:03 37° 54° (NE) 22:34:55 437.345 MHz
KITSAT 1 29 Aug 22:41:42 22:48:02 26° 105° (ESE) 22:54:22 435.175 FM
UKube-1 29 Aug 22:49:20 22:51:12 13° 270° (W) 22:53:04 145.840 MHz, 145.915 MHz
Oscar 11 29 Aug 22:55:29 22:58:21 17° 268° (W) 23:01:15 145.825 FM, Beacon 2401.500 USB
FUNcube-1 29 Aug 23:17:29 23:20:52 24° 266° (W) 23:24:20 145.950 - 145.970 MHz USB
Saudisat 1A 29 Aug 23:47:53 23:52:11 52° 309° (NW) 23:56:31 436.775 MHz
MaSat-1 30 Aug 00:04:12 00:07:45 23° 256° (WSW) 00:10:57 437.345 MHz
Sapphire 30 Aug 00:13:51 00:15:51 12° 32° (NNE) 00:17:51 437.095 MHz 1200 baud AX-25 AFSK
KITSAT 1 30 Aug 00:34:35 00:42:40 74° 304° (NW) 00:50:48 435.175 FM
PCSat 30 Aug 00:42:26 00:46:08 18° 39° (NE) 00:49:50 145.825 MHz
Oscar 16 30 Aug 01:29:28 01:33:32 23° 93° (E) 01:37:33 437.025 USB, Beacon 2401.1428
Saudisat 1A 30 Aug 01:31:35 01:32:48 11° 330° (NNW) 01:34:00 436.775 MHz
Uribyol 2 30 Aug 01:37:09 01:38:39 11° 88° (E) 01:40:08 436.500 FM
AO-27 30 Aug 01:54:14 01:57:26 16° 91° (E) 02:00:37 436.795 MHz FM
Sapphire 30 Aug 01:55:21 02:00:38 50° 54° (NE) 02:05:53 437.095 MHz 1200 baud AX-25 AFSK
Gurwin Techsat 1B 30 Aug 02:17:43 02:19:44 12° 88° (E) 02:21:44 435.225 FM
PCSat 30 Aug 02:24:53 02:30:21 88° 60° (ENE) 02:35:46 145.825 MHz
Oscar 19 30 Aug 02:33:11 02:38:26 83° 103° (ESE) 02:43:37 437.125 CW, 437.150 USB
KITSAT 1 30 Aug 02:33:14 02:39:32 24° 329° (NNW) 02:45:51 435.175 FM
JAS-1B 30 Aug 02:33:51 02:40:02 35° 94° (E) 02:45:27 435.800 - 435.900 CW/SSB
OPAL 30 Aug 02:47:05 02:49:46 15° 55° (NE) 02:52:29 ?
ITAMSAT 1 30 Aug 03:03:23 03:08:35 69° 103° (ESE) 03:13:44 435.822 SSB
TMSAT-1 30 Aug 03:07:57 03:12:24 27° 94° (E) 03:16:49 436.925 FM
Oscar 16 30 Aug 03:08:07 03:13:07 48° 290° (WNW) 03:18:04 437.025 USB, Beacon 2401.1428
AO-Echo 30 Aug 03:08:13 03:12:56 88° 103° (ESE) 03:17:39 ?
Uribyol 2 30 Aug 03:13:36 03:18:49 90° 104° (ESE) 03:24:02 436.500 FM
AO-27 30 Aug 03:32:15 03:37:24 65° 288° (WNW) 03:42:32 436.795 MHz FM
Sapphire 30 Aug 03:39:22 03:43:45 26° 252° (WSW) 03:48:07 437.095 MHz 1200 baud AX-25 AFSK
SO-50 30 Aug 03:44:48 03:48:58 39° 117° (ESE) 03:53:14 436.795 FM
Gurwin Techsat 1B 30 Aug 03:55:03 04:00:23 87° 285° (WNW) 04:05:42 435.225 FM
Uosat F 30 Aug 03:59:22 04:02:05 15° 90° (E) 04:04:47 435.120 FM
PCSat 30 Aug 04:10:33 04:12:57 13° 257° (WSW) 04:15:21 145.825 MHz
Oscar 19 30 Aug 04:14:18 04:17:04 15° 302° (WNW) 04:19:50 437.125 CW, 437.150 USB
OPAL 30 Aug 04:22:52 04:27:56 85° 253° (WSW) 04:33:06 ?
JAS-1B 30 Aug 04:24:24 04:30:45 39° 297° (WNW) 04:36:18 435.800 - 435.900 CW/SSB
KITSAT 1 30 Aug 04:34:41 04:38:32 14° 359° (N) 04:42:23 435.175 FM
ITAMSAT 1 30 Aug 04:44:14 04:47:31 17° 300° (WNW) 04:50:47 435.822 SSB
AO-7 30 Aug 04:45:37 04:53:32 46° 100° (E) 05:01:22 29.400 - 29.500 MHz
TMSAT-1 30 Aug 04:47:29 04:52:26 41° 291° (WNW) 04:57:22 436.925 FM
AO-Echo 30 Aug 04:49:27 04:51:01 12° 302° (WNW) 04:52:34 ?
Uribyol 2 30 Aug 04:55:07 04:57:33 13° 303° (WNW) 04:59:59 436.500 FM
SO-50 30 Aug 05:25:43 05:29:38 28° 316° (NW) 05:33:39 436.795 FM
Uosat F 30 Aug 05:36:22 05:41:22 69° 287° (WNW) 05:46:19 435.120 FM
Gurwin Techsat 1B 30 Aug 05:37:08 05:39:33 13° 303° (WNW) 05:41:58 435.225 FM
Hamsat 30 Aug 05:39:40 05:41:59 14° 90° (E) 05:44:16 145.90 MHz
JAS-2 30 Aug 05:43:34 05:46:56 17° 92° (E) 05:50:26 435.800 - 435.900 CW/SSB, 435.910 FM
UOSAT-12 30 Aug 05:48:41 05:53:11 55° 120° (ESE) 05:57:48 437.025 FM, 437.400 FM
STRAND 1 30 Aug 06:05:48 06:10:31 39° 68° (ENE) 06:15:14 ?
OPAL 30 Aug 06:07:06 06:07:35 10° 271° (W) 06:08:03 ?
Oscar 10/S400 30 Aug 06:19:56 06:52:48 12° 258° (WSW) 07:37:48 145.825 - 145.975 CW/USB, Beacon 145.810 USB
KITSAT 1 30 Aug 06:31:34 06:37:38 22° 29° (NNE) 06:43:40 435.175 FM
Saudisat 1A 30 Aug 06:34:24 06:38:04 25° 43° (NE) 06:41:43 436.775 MHz
AO-7 30 Aug 06:38:35 06:46:16 44° 299° (WNW) 06:53:55 29.400 - 29.500 MHz
RS-15 30 Aug 07:03:04 07:12:45 37° 107° (ESE) 07:22:17 29.354 - 29.394 USB, Beacon 29.352 USB
SO-67 30 Aug 07:04:14 07:06:10 14° 92° (E) 07:08:06 435.3500 MHz FM
Hamsat 30 Aug 07:14:01 07:18:18 56° 287° (WNW) 07:22:32 145.90 MHz
JAS-2 30 Aug 07:27:19 07:32:28 61° 288° (WNW) 07:37:56 435.800 - 435.900 CW/SSB, 435.910 FM
UOSAT-12 30 Aug 07:29:54 07:33:40 24° 319° (NW) 07:37:30 437.025 FM, 437.400 FM
STRAND 1 30 Aug 07:45:34 07:49:48 26° 265° (W) 07:54:04 ?
Saudisat 1A 30 Aug 08:13:37 08:17:51 45° 242° (WSW) 08:22:02 436.775 MHz
KITSAT 1 30 Aug 08:26:37 08:34:42 67° 54° (NE) 08:42:42 435.175 FM
AO-7 30 Aug 08:34:55 08:36:54 11° 322° (NW) 08:38:52 29.400 - 29.500 MHz
SO-67 30 Aug 08:36:11 08:39:21 34° 288° (WNW) 08:42:30 435.3500 MHz FM
HO-68 30 Aug 09:04:59 09:11:12 31° 95° (E) 09:17:22 435.675 MHz FM
